Погода в Пхаттхалунге

Таиланд     7°36′35″N   100°03′30″E
темп.,
°C
ветер,
м/с
пор.,
м/с
влажн.,
%
обл.,
%
осадки,
мм/ч
давл.,
гПа
погр.,
м
25 января, пн
пн2501:00+23вюв239384 0.3 101184
04:00+23юв229336 0.1 101048
07:00+22юв239456 0.1 101183
10:00+27в457599 0.1 1012947
13:00+28в556692 0.2 10101156
16:00+27в4569100 0.0 1008949
19:00+23в2486100 0.0 1008128
22:00+23вюв229074 0.0 101154
26 января, вт
вт2601:00+24вюв268779 0.1 1010256
04:00+23юв249169 0.1 1009134
07:00+22юв229155 0.1 100976
10:00+27в467559 0.1 1011911
13:00+28в676769 0.2 10091135
16:00+27в577128 0.0 1007963
19:00+24вюв368649 0.0 1008292
22:00+23юв239082 0.0 101084
27 января, ср
ср2701:00+24юв238587 0.1 1009150
04:00+22вюв119232 0.0 100839
07:00+23вюв229164 0.2 100965
10:00+27вюв357460 1.4 1011841
13:00+28в456956 3.8 10091027
16:00+27в467626 4.5 1007880
19:00+24в249131 7.6 1008106
22:00+23вюв249420 0.9 1011126
28 января, чт
чт2801:00+23юв249550 1.6 1010138
04:00+23юв249545 0.3 1009113
07:00+23юв249548 0.6 1010137
10:00+26вюв478255 0.3 1012888
13:00+29в577055 1.3 10101191
16:00+28в577378 0.4 10081057
19:00+24в378789 0.4 1009327
22:00+24в368978 0.1 1012273
29 января, пт
пт2901:00+24вюв378789 0.3 1011398
04:00+24вюв389091 0.4 1010363
07:00+23вюв389092 0.8 1011349
10:00+25вюв588595 0.5 1013886
13:00+28в696996 1.1 10111210
16:00+27в6974100 0.4 10081145
19:00+24вюв4108899 1.4 1010557
22:00+23вюв3988100 0.2 1012352